User: anonymous   Login
Location: Limerick
(52.6800°N, 8.6400°W)
Time: 13:33:05
(UTC+00:00)
Language:

Sapphire - Orbit

View from above orbital plane
View from above orbital plane
View from above satellite
View from above satellite

Ground track
Ground track

The orbit data is extracted from the following two-line orbital elements,

1 26932U 01043D   14302.79289225  .00000087  00000-0  65740-4 0  7498
2 26932 067.0584 052.4268 0008212 286.8234 073.1966 14.30050820682895
Epoch (UTC): 29 October 2014 19:01:45
Eccentricity: 0.0008212
inclination: 67.0584°
perigee height: 785 km
apogee height: 797 km
right ascension of ascending node: 52.4268°
argument of perigee: 286.8234°
revolutions per day: 14.30050820
mean anomaly at epoch: 73.1966°
orbit number at epoch: 68289

The dashed part of the orbit path shows where the satellite is in the earth's shadow,  

DLR